Data supplied by UK-AIR on 26/5/2011
All Data GMT hour ending 
Status: R =Ratified P=Provisional,P*=As supplied
,,Manchester Piccadilly,,,,,,,,,,,,,,,,,,,,,,,
Date,time,"Nitric oxide",status,unit,"Nitrogen dioxide",status,unit,"Nitrogen oxides as nitrogen dioxide",status,unit,"Non-volatile PM<sub>2.5</sub> (Hourly measured)",status,unit,"Ozone",status,unit,"PM<sub>2.5</sub> particulate matter (Hourly measured)",status,unit,"Sulphur dioxide",status,unit,"Volatile PM2.5 (Hourly measured)",status,unit
 
01-01-2010,01:00,8,R,ugm-3,53,R,ugm-3,65,R,ugm-3,,,,16,R,ugm-3,,,,,,,,,
01-01-2010,02:00,6,R,ugm-3,57,R,ugm-3,67,R,ugm-3,,,,16,R,ugm-3,,,,,,,,,
01-01-2010,03:00,11,R,ugm-3,61,R,ugm-3,78,R,ugm-3,,,,8,R,ugm-3,,,,,,,,,
01-01-2010,04:00,6,R,ugm-3,53,R,ugm-3,63,R,ugm-3,,,,14,R,ugm-3,,,,5,R,ugm-3,,,
01-01-2010,05:00,4,R,ugm-3,42,R,ugm-3,48,R,ugm-3,,,,22,R,ugm-3,,,,5,R,ugm-3,,,
01-01-2010,06:00,4,R,ugm-3,46,R,ugm-3,52,R,ugm-3,,,,18,R,ugm-3,,,,5,R,ugm-3,,,
01-01-2010,07:00,4,R,ugm-3,40,R,ugm-3,46,R,ugm-3,,,,22,R,ugm-3,,,,5,R,ugm-3,,,
01-01-2010,08:00,23,R,ugm-3,67,R,ugm-3,101,R,ugm-3,,,,4,R,ugm-3,,,,5,R,ugm-3,,,
01-01-2010,09:00,79,R,ugm-3,59,R,ugm-3,180,R,ugm-3,,,,4,R,ugm-3,,,,8,R,ugm-3,,,
01-01-2010,10:00,184,R,ugm-3,61,R,ugm-3,342,R,ugm-3,,,,0,R,ugm-3,,,,8,R,ugm-3,,,
01-01-2010,11:00,126,R,ugm-3,63,R,ugm-3,256,R,ugm-3,,,,0,R,ugm-3,,,,5,R,ugm-3,,,
01-01-2010,12:00,68,R,ugm-3,67,R,ugm-3,170,R,ugm-3,,,,2,R,ugm-3,,,,5,R,ugm-3,,,
01-01-2010,13:00,81,R,ugm-3,65,R,ugm-3,189,R,ugm-3,,,,2,R,ugm-3,,,,5,R,ugm-3,,,
01-01-2010,14:00,39,R,ugm-3,63,R,ugm-3,122,R,ugm-3,,,,6,R,ugm-3,,,,5,R,ugm-3,,,
01-01-2010,15:00,13,R,ugm-3,52,R,ugm-3,71,R,ugm-3,,,,20,R,ugm-3,,,,5,R,ugm-3,,,
01-01-2010,16:00,5,R,ugm-3,42,R,ugm-3,50,R,ugm-3,,,,26,R,ugm-3,,,,5,R,ugm-3,,,
01-01-2010,17:00,5,R,ugm-3,42,R,ugm-3,50,R,ugm-3,,,,22,R,ugm-3,,,,5,R,ugm-3,,,
01-01-2010,18:00,6,R,ugm-3,50,R,ugm-3,59,R,ugm-3,,,,16,R,ugm-3,,,,5,R,ugm-3,,,
01-01-2010,19:00,8,R,ugm-3,55,R,ugm-3,67,R,ugm-3,,,,10,R,ugm-3,,,,5,R,ugm-3,,,
01-01-2010,20:00,5,R,ugm-3,42,R,ugm-3,50,R,ugm-3,,,,20,R,ugm-3,,,,5,R,ugm-3,,,
01-01-2010,21:00,3,R,ugm-3,27,R,ugm-3,31,R,ugm-3,,,,30,R,ugm-3,,,,5,R,ugm-3,,,
01-01-2010,22:00,4,R,ugm-3,34,R,ugm-3,40,R,ugm-3,,,,22,R,ugm-3,,,,5,R,ugm-3,,,
01-01-2010,23:00,5,R,ugm-3,48,R,ugm-3,55,R,ugm-3,,,,12,R,ugm-3,,,,5,R,ugm-3,,,
01-01-2010,24:00,9,R,ugm-3,50,R,ugm-3,63,R,ugm-3,,,,10,R,ugm-3,,,,5,R,ugm-3,,,
02-01-2010,01:00,8,R,ugm-3,50,R,ugm-3,61,R,ugm-3,,,,8,R,ugm-3,,,,5,R,ugm-3,,,
02-01-2010,02:00,4,R,ugm-3,36,R,ugm-3,42,R,ugm-3,,,,20,R,ugm-3,,,,,,,,,
02-01-2010,03:00,14,R,ugm-3,40,R,ugm-3,61,R,ugm-3,,,,14,R,ugm-3,,,,8,R,ugm-3,,,
02-01-2010,04:00,75,R,ugm-3,53,R,ugm-3,168,R,ugm-3,,,,0,R,ugm-3,,,,8,R,ugm-3,,,
02-01-2010,05:00,83,R,ugm-3,52,R,ugm-3,178,R,ugm-3,,,,0,R,ugm-3,,,,8,R,ugm-3,,,
02-01-2010,06:00,83,R,ugm-3,50,R,ugm-3,176,R,ugm-3,,,,0,R,ugm-3,,,,5,R,ugm-3,,,
02-01-2010,07:00,75,R,ugm-3,50,R,ugm-3,164,R,ugm-3,,,,0,R,ugm-3,,,,5,R,ugm-3,,,
02-01-2010,08:00,88,R,ugm-3,53,R,ugm-3,187,R,ugm-3,,,,0,R,ugm-3,,,,5,R,ugm-3,,,
02-01-2010,09:00,159,R,ugm-3,55,R,ugm-3,298,R,ugm-3,,,,0,R,ugm-3,,,,8,R,ugm-3,,,
02-01-2010,10:00,129,R,ugm-3,55,R,ugm-3,252,R,ugm-3,,,,0,R,ugm-3,,,,5,R,ugm-3,,,
02-01-2010,11:00,98,R,ugm-3,57,R,ugm-3,206,R,ugm-3,,,,0,R,ugm-3,,,,5,R,ugm-3,,,
02-01-2010,12:00,123,R,ugm-3,63,R,ugm-3,250,R,ugm-3,,,,0,R,ugm-3,,,,5,R,ugm-3,,,
02-01-2010,13:00,73,R,ugm-3,71,R,ugm-3,181,R,ugm-3,,,,2,R,ugm-3,,,,5,R,ugm-3,,,
02-01-2010,14:00,48,R,ugm-3,65,R,ugm-3,138,R,ugm-3,,,,4,R,ugm-3,,,,5,R,ugm-3,,,
02-01-2010,15:00,73,R,ugm-3,74,R,ugm-3,185,R,ugm-3,,,,2,R,ugm-3,,,,8,R,ugm-3,,,
02-01-2010,16:00,98,R,ugm-3,76,R,ugm-3,225,R,ugm-3,,,,0,R,ugm-3,,,,8,R,ugm-3,,,
02-01-2010,17:00,100,R,ugm-3,76,R,ugm-3,229,R,ugm-3,,,,0,R,ugm-3,,,,5,R,ugm-3,,,
02-01-2010,18:00,113,R,ugm-3,76,R,ugm-3,248,R,ugm-3,,,,0,R,ugm-3,,,,8,R,ugm-3,,,
02-01-2010,19:00,70,R,ugm-3,61,R,ugm-3,168,R,ugm-3,,,,2,R,ugm-3,,,,5,R,ugm-3,,,
02-01-2010,20:00,23,R,ugm-3,38,R,ugm-3,73,R,ugm-3,,,,12,R,ugm-3,,,,5,R,ugm-3,,,
02-01-2010,21:00,13,R,ugm-3,31,R,ugm-3,50,R,ugm-3,,,,18,R,ugm-3,,,,5,R,ugm-3,,,
02-01-2010,22:00,8,R,ugm-3,27,R,ugm-3,38,R,ugm-3,,,,24,R,ugm-3,,,,5,R,ugm-3,,,
02-01-2010,23:00,8,R,ugm-3,27,R,ugm-3,38,R,ugm-3,,,,24,R,ugm-3,,,,5,R,ugm-3,,,
02-01-2010,24:00,9,R,ugm-3,32,R,ugm-3,46,R,ugm-3,,,,20,R,ugm-3,,,,5,R,ugm-3,,,
03-01-2010,01:00,8,R,ugm-3,32,R,ugm-3,44,R,ugm-3,,,,20,R,ugm-3,,,,5,R,ugm-3,,,
03-01-2010,02:00,5,R,ugm-3,32,R,ugm-3,40,R,ugm-3,,,,22,R,ugm-3,,,,,,,,,
03-01-2010,03:00,4,R,ugm-3,27,R,ugm-3,32,R,ugm-3,,,,24,R,ugm-3,,,,5,R,ugm-3,,,
03-01-2010,04:00,4,R,ugm-3,25,R,ugm-3,31,R,ugm-3,,,,22,R,ugm-3,,,,5,R,ugm-3,,,
03-01-2010,05:00,4,R,ugm-3,27,R,ugm-3,32,R,ugm-3,,,,18,R,ugm-3,,,,5,R,ugm-3,,,
03-01-2010,06:00,5,R,ugm-3,32,R,ugm-3,40,R,ugm-3,,,,12,R,ugm-3,,,,5,R,ugm-3,,,
03-01-2010,07:00,5,R,ugm-3,34,R,ugm-3,42,R,ugm-3,,,,10,R,ugm-3,,,,5,R,ugm-3,,,
03-01-2010,08:00,6,R,ugm-3,40,R,ugm-3,50,R,ugm-3,,,,8,R,ugm-3,,,,3,R,ugm-3,,,
03-01-2010,09:00,18,R,ugm-3,42,R,ugm-3,69,R,ugm-3,,,,2,R,ugm-3,,,,3,R,ugm-3,,,
03-01-2010,10:00,39,R,ugm-3,42,R,ugm-3,101,R,ugm-3,,,,2,R,ugm-3,,,,0,R,ugm-3,,,
03-01-2010,11:00,44,R,ugm-3,42,R,ugm-3,109,R,ugm-3,,,,4,R,ugm-3,,,,3,R,ugm-3,,,
03-01-2010,12:00,35,R,ugm-3,40,R,ugm-3,94,R,ugm-3,,,,6,R,ugm-3,,,,3,R,ugm-3,,,
03-01-2010,13:00,25,R,ugm-3,34,R,ugm-3,73,R,ugm-3,,,,10,R,ugm-3,,,,3,R,ugm-3,,,
03-01-2010,14:00,24,R,ugm-3,36,R,ugm-3,73,R,ugm-3,,,,10,R,ugm-3,,,,3,R,ugm-3,,,
03-01-2010,15:00,33,R,ugm-3,40,R,ugm-3,90,R,ugm-3,,,,6,R,ugm-3,,,,5,R,ugm-3,,,
03-01-2010,16:00,29,R,ugm-3,44,R,ugm-3,88,R,ugm-3,,,,4,R,ugm-3,,,,5,R,ugm-3,,,
03-01-2010,17:00,40,R,ugm-3,52,R,ugm-3,113,R,ugm-3,,,,0,R,ugm-3,,,,5,R,ugm-3,,,
03-01-2010,18:00,68,R,ugm-3,53,R,ugm-3,157,R,ugm-3,,,,0,R,ugm-3,,,,5,R,ugm-3,,,
03-01-2010,19:00,63,R,ugm-3,59,R,ugm-3,155,R,ugm-3,,,,0,R,ugm-3,,,,5,R,ugm-3,,,
03-01-2010,20:00,70,R,ugm-3,59,R,ugm-3,166,R,ugm-3,,,,0,R,ugm-3,,,,5,R,ugm-3,,,
03-01-2010,21:00,59,R,ugm-3,57,R,ugm-3,147,R,ugm-3,,,,0,R,ugm-3,,,,5,R,ugm-3,,,
03-01-2010,22:00,121,R,ugm-3,59,R,ugm-3,244,R,ugm-3,,,,0,R,ugm-3,,,,5,R,ugm-3,,,
03-01-2010,23:00,126,R,ugm-3,59,R,ugm-3,252,R,ugm-3,,,,0,R,ugm-3,,,,5,R,ugm-3,,,
03-01-2010,24:00,103,R,ugm-3,57,R,ugm-3,214,R,ugm-3,,,,0,R,ugm-3,,,,5,R,ugm-3,,,
04-01-2010,01:00,143,R,ugm-3,61,R,ugm-3,279,R,ugm-3,,,,2,R,ugm-3,,,,5,R,ugm-3,,,
04-01-2010,02:00,140,R,ugm-3,55,R,ugm-3,269,R,ugm-3,,,,2,R,ugm-3,,,,5,R,ugm-3,,,
04-01-2010,03:00,115,R,ugm-3,50,R,ugm-3,225,R,ugm-3,,,,2,R,ugm-3,,,,5,R,ugm-3,,,
04-01-2010,04:00,114,R,ugm-3,48,R,ugm-3,222,R,ugm-3,,,,2,R,ugm-3,,,,3,R,ugm-3,,,
04-01-2010,05:00,80,R,ugm-3,46,R,ugm-3,168,R,ugm-3,,,,2,R,ugm-3,,,,0,R,ugm-3,,,
04-01-2010,06:00,83,R,ugm-3,46,R,ugm-3,172,R,ugm-3,,,,2,R,ugm-3,,,,0,R,ugm-3,,,
04-01-2010,07:00,113,R,ugm-3,48,R,ugm-3,220,R,ugm-3,,,,2,R,ugm-3,,,,0,R,ugm-3,,,
04-01-2010,08:00,163,R,ugm-3,50,R,ugm-3,298,R,ugm-3,,,,2,R,ugm-3,,,,5,R,ugm-3,,,
04-01-2010,09:00,221,R,ugm-3,59,R,ugm-3,397,R,ugm-3,,,,2,R,ugm-3,,,,5,R,ugm-3,,,
04-01-2010,10:00,368,R,ugm-3,78,R,ugm-3,640,R,ugm-3,,,,2,R,ugm-3,,,,8,R,ugm-3,,,
04-01-2010,11:00,365,R,ugm-3,90,R,ugm-3,647,R,ugm-3,,,,4,R,ugm-3,,,,11,R,ugm-3,,,
04-01-2010,12:00,356,R,ugm-3,90,R,ugm-3,634,R,ugm-3,,,,4,R,ugm-3,,,,8,R,ugm-3,,,
04-01-2010,13:00,249,R,ugm-3,82,R,ugm-3,462,R,ugm-3,,,,4,R,ugm-3,,,,5,R,ugm-3,,,
04-01-2010,14:00,229,R,ugm-3,78,R,ugm-3,428,R,ugm-3,,,,4,R,ugm-3,,,,8,R,ugm-3,,,
04-01-2010,15:00,249,R,ugm-3,94,R,ugm-3,474,R,ugm-3,,,,4,R,ugm-3,,,,8,R,ugm-3,,,
04-01-2010,16:00,223,R,ugm-3,74,R,ugm-3,414,R,ugm-3,,,,2,R,ugm-3,,,,5,R,ugm-3,,,
04-01-2010,17:00,219,R,ugm-3,67,R,ugm-3,401,R,ugm-3,,,,2,R,ugm-3,,,,5,R,ugm-3,,,
04-01-2010,18:00,218,R,ugm-3,63,R,ugm-3,395,R,ugm-3,,,,2,R,ugm-3,,,,8,R,ugm-3,,,
04-01-2010,19:00,219,R,ugm-3,63,R,ugm-3,397,R,ugm-3,,,,2,R,ugm-3,,,,8,R,ugm-3,,,
04-01-2010,20:00,204,R,ugm-3,63,R,ugm-3,374,R,ugm-3,,,,2,R,ugm-3,,,,8,R,ugm-3,,,
04-01-2010,21:00,136,R,ugm-3,61,R,ugm-3,269,R,ugm-3,,,,2,R,ugm-3,,,,5,R,ugm-3,,,
04-01-2010,22:00,94,R,ugm-3,57,R,ugm-3,201,R,ugm-3,,,,2,R,ugm-3,,,,5,R,ugm-3,,,
04-01-2010,23:00,61,R,ugm-3,52,R,ugm-3,145,R,ugm-3,,,,2,R,ugm-3,,,,5,R,ugm-3,,,
04-01-2010,24:00,56,R,ugm-3,48,R,ugm-3,134,R,ugm-3,,,,2,R,ugm-3,,,,5,R,ugm-3,,,
05-01-2010,01:00,30,R,ugm-3,46,R,ugm-3,92,R,ugm-3,,,,2,R,ugm-3,,,,3,R,ugm-3,,,
05-01-2010,02:00,14,R,ugm-3,42,R,ugm-3,63,R,ugm-3,,,,4,R,ugm-3,,,,,,,,,
05-01-2010,03:00,14,R,ugm-3,36,R,ugm-3,57,R,ugm-3,,,,6,R,ugm-3,,,,3,R,ugm-3,,,
05-01-2010,04:00,10,R,ugm-3,36,R,ugm-3,52,R,ugm-3,,,,8,R,ugm-3,,,,3,R,ugm-3,,,
05-01-2010,05:00,6,R,ugm-3,34,R,ugm-3,44,R,ugm-3,,,,10,R,ugm-3,,,,5,R,ugm-3,,,
05-01-2010,06:00,10,R,ugm-3,36,R,ugm-3,52,R,ugm-3,,,,8,R,ugm-3,,,,5,R,ugm-3,,,
05-01-2010,07:00,26,R,ugm-3,42,R,ugm-3,82,R,ugm-3,,,,4,R,ugm-3,,,,5,R,ugm-3,,,
05-01-2010,08:00,41,R,ugm-3,48,R,ugm-3,111,R,ugm-3,,,,2,R,ugm-3,,,,5,R,ugm-3,,,
05-01-2010,09:00,35,R,ugm-3,48,R,ugm-3,101,R,ugm-3,,,,4,R,ugm-3,,,,5,R,ugm-3,,,
05-01-2010,10:00,73,R,ugm-3,55,R,ugm-3,166,R,ugm-3,,,,2,R,ugm-3,,,,5,R,ugm-3,,,
05-01-2010,11:00,59,R,ugm-3,55,R,ugm-3,145,R,ugm-3,,,,4,R,ugm-3,,,,5,R,ugm-3,,,
05-01-2010,12:00,26,R,ugm-3,63,R,ugm-3,103,R,ugm-3,,,,14,R,ugm-3,,,,3,R,ugm-3,,,
05-01-2010,13:00,30,R,ugm-3,61,R,ugm-3,107,R,ugm-3,,,,18,R,ugm-3,,,,0,R,ugm-3,,,
05-01-2010,14:00,9,R,ugm-3,48,R,ugm-3,61,R,ugm-3,,,,30,R,ugm-3,,,,3,R,ugm-3,,,
05-01-2010,15:00,10,R,ugm-3,55,R,ugm-3,71,R,ugm-3,,,,24,R,ugm-3,,,,3,R,ugm-3,,,
05-01-2010,16:00,9,R,ugm-3,52,R,ugm-3,65,R,ugm-3,,,,28,R,ugm-3,,,,3,R,ugm-3,,,
05-01-2010,17:00,10,R,ugm-3,48,R,ugm-3,63,R,ugm-3,,,,28,R,ugm-3,,,,5,R,ugm-3,,,
05-01-2010,18:00,8,R,ugm-3,52,R,ugm-3,63,R,ugm-3,,,,28,R,ugm-3,,,,5,R,ugm-3,,,
05-01-2010,19:00,5,R,ugm-3,44,R,ugm-3,52,R,ugm-3,,,,34,R,ugm-3,,,,5,R,ugm-3,,,
05-01-2010,20:00,5,R,ugm-3,34,R,ugm-3,42,R,ugm-3,,,,40,R,ugm-3,,,,5,R,ugm-3,,,
05-01-2010,21:00,5,R,ugm-3,36,R,ugm-3,44,R,ugm-3,,,,38,R,ugm-3,,,,5,R,ugm-3,,,
05-01-2010,22:00,3,R,ugm-3,31,R,ugm-3,34,R,ugm-3,,,,42,R,ugm-3,,,,5,R,ugm-3,,,
05-01-2010,23:00,4,R,ugm-3,32,R,ugm-3,38,R,ugm-3,,,,42,R,ugm-3,,,,5,R,ugm-3,,,
05-01-2010,24:00,4,R,ugm-3,29,R,ugm-3,34,R,ugm-3,,,,46,R,ugm-3,,,,5,R,ugm-3,,,
06-01-2010,01:00,1,R,ugm-3,19,R,ugm-3,21,R,ugm-3,,,,50,R,ugm-3,,,,5,R,ugm-3,,,
06-01-2010,02:00,4,R,ugm-3,23,R,ugm-3,29,R,ugm-3,,,,50,R,ugm-3,,,,,,,,,
06-01-2010,03:00,3,R,ugm-3,17,R,ugm-3,21,R,ugm-3,,,,52,R,ugm-3,,,,5,R,ugm-3,,,
06-01-2010,04:00,1,R,ugm-3,17,R,ugm-3,19,R,ugm-3,,,,48,R,ugm-3,,,,5,R,ugm-3,,,
06-01-2010,05:00,1,R,ugm-3,15,R,ugm-3,17,R,ugm-3,,,,50,R,ugm-3,,,,5,R,ugm-3,,,
06-01-2010,06:00,3,R,ugm-3,27,R,ugm-3,31,R,ugm-3,,,,40,R,ugm-3,,,,5,R,ugm-3,,,
06-01-2010,07:00,14,R,ugm-3,48,R,ugm-3,69,R,ugm-3,,,,22,R,ugm-3,,,,5,R,ugm-3,,,
06-01-2010,08:00,21,R,ugm-3,57,R,ugm-3,90,R,ugm-3,,,,20,R,ugm-3,,,,5,R,ugm-3,,,
06-01-2010,09:00,39,R,ugm-3,69,R,ugm-3,128,R,ugm-3,,,,6,R,ugm-3,,,,5,R,ugm-3,,,
06-01-2010,10:00,50,R,ugm-3,69,R,ugm-3,145,R,ugm-3,,,,6,R,ugm-3,,,,5,R,ugm-3,,,
06-01-2010,11:00,39,R,ugm-3,65,R,ugm-3,124,R,ugm-3,,,,12,R,ugm-3,,,,3,R,ugm-3,,,
06-01-2010,12:00,40,R,ugm-3,61,R,ugm-3,122,R,ugm-3,,,,16,R,ugm-3,,,,5,R,ugm-3,,,
06-01-2010,13:00,34,R,ugm-3,59,R,ugm-3,111,R,ugm-3,,,,18,R,ugm-3,,,,5,R,ugm-3,,,
06-01-2010,14:00,35,R,ugm-3,61,R,ugm-3,115,R,ugm-3,,,,18,R,ugm-3,,,,3,R,ugm-3,,,
06-01-2010,15:00,43,R,ugm-3,69,R,ugm-3,134,R,ugm-3,,,,14,R,ugm-3,,,,5,R,ugm-3,,,
06-01-2010,16:00,23,R,ugm-3,69,R,ugm-3,103,R,ugm-3,,,,12,R,ugm-3,,,,3,R,ugm-3,,,
06-01-2010,17:00,45,R,ugm-3,78,R,ugm-3,147,R,ugm-3,,,,4,R,ugm-3,,,,5,R,ugm-3,,,
06-01-2010,18:00,33,R,ugm-3,78,R,ugm-3,128,R,ugm-3,,,,4,R,ugm-3,,,,3,R,ugm-3,,,
06-01-2010,19:00,41,R,ugm-3,82,R,ugm-3,145,R,ugm-3,,,,4,R,ugm-3,,,,3,R,ugm-3,,,
06-01-2010,20:00,19,R,ugm-3,73,R,ugm-3,101,R,ugm-3,,,,8,R,ugm-3,,,,3,R,ugm-3,,,
06-01-2010,21:00,33,R,ugm-3,76,R,ugm-3,126,R,ugm-3,,,,6,R,ugm-3,,,,3,R,ugm-3,,,
06-01-2010,22:00,14,R,ugm-3,61,R,ugm-3,82,R,ugm-3,,,,14,R,ugm-3,,,,0,R,ugm-3,,,
06-01-2010,23:00,4,R,ugm-3,53,R,ugm-3,59,R,ugm-3,,,,22,R,ugm-3,,,,0,R,ugm-3,,,
06-01-2010,24:00,5,R,ugm-3,42,R,ugm-3,50,R,ugm-3,,,,28,R,ugm-3,,,,3,R,ugm-3,,,
07-01-2010,01:00,180,R,ugm-3,82,R,ugm-3,357,R,ugm-3,,,,2,R,ugm-3,,,,5,R,ugm-3,,,
07-01-2010,02:00,228,R,ugm-3,86,R,ugm-3,434,R,ugm-3,,,,2,R,ugm-3,,,,5,R,ugm-3,,,
07-01-2010,03:00,140,R,ugm-3,80,R,ugm-3,294,R,ugm-3,,,,2,R,ugm-3,,,,5,R,ugm-3,,,
07-01-2010,04:00,91,R,ugm-3,76,R,ugm-3,216,R,ugm-3,,,,2,R,ugm-3,,,,3,R,ugm-3,,,
07-01-2010,05:00,119,R,ugm-3,76,R,ugm-3,258,R,ugm-3,,,,2,R,ugm-3,,,,5,R,ugm-3,,,
07-01-2010,06:00,214,R,ugm-3,76,R,ugm-3,403,R,ugm-3,,,,2,R,ugm-3,,,,5,R,ugm-3,,,
07-01-2010,07:00,225,R,ugm-3,74,R,ugm-3,418,R,ugm-3,,,,2,R,ugm-3,,,,5,R,ugm-3,,,
07-01-2010,08:00,264,R,ugm-3,76,R,ugm-3,479,R,ugm-3,,,,2,R,ugm-3,,,,5,R,ugm-3,,,
07-01-2010,09:00,273,R,ugm-3,80,R,ugm-3,497,R,ugm-3,,,,2,R,ugm-3,,,,5,R,ugm-3,,,
07-01-2010,10:00,393,R,ugm-3,92,R,ugm-3,691,R,ugm-3,,,,2,R,ugm-3,,,,13,R,ugm-3,,,
07-01-2010,11:00,544,R,ugm-3,111,R,ugm-3,942,R,ugm-3,,,,4,R,ugm-3,,,,16,R,ugm-3,,,
07-01-2010,12:00,353,R,ugm-3,99,R,ugm-3,638,R,ugm-3,,,,4,R,ugm-3,,,,8,R,ugm-3,,,
07-01-2010,13:00,259,R,ugm-3,103,R,ugm-3,499,R,ugm-3,,,,4,R,ugm-3,,,,5,R,ugm-3,,,
07-01-2010,14:00,300,R,ugm-3,107,R,ugm-3,565,R,ugm-3,,,,4,R,ugm-3,,,,11,R,ugm-3,,,
07-01-2010,15:00,324,R,ugm-3,117,R,ugm-3,611,R,ugm-3,,,,4,R,ugm-3,,,,11,R,ugm-3,,,
07-01-2010,16:00,385,R,ugm-3,120,R,ugm-3,709,R,ugm-3,,,,4,R,ugm-3,,,,13,R,ugm-3,,,
07-01-2010,17:00,499,R,ugm-3,126,R,ugm-3,888,R,ugm-3,,,,4,R,ugm-3,,,,19,R,ugm-3,,,
07-01-2010,18:00,490,R,ugm-3,132,R,ugm-3,881,R,ugm-3,,,,4,R,ugm-3,,,,21,R,ugm-3,,,
07-01-2010,19:00,586,R,ugm-3,141,R,ugm-3,1037,R,ugm-3,,,,6,R,ugm-3,,,,21,R,ugm-3,,,
07-01-2010,20:00,619,R,ugm-3,145,R,ugm-3,1091,R,ugm-3,,,,6,R,ugm-3,,,,27,R,ugm-3,,,
07-01-2010,21:00,625,R,ugm-3,162,R,ugm-3,1117,R,ugm-3,,,,6,R,ugm-3,,,,21,R,ugm-3,,,
07-01-2010,22:00,514,R,ugm-3,153,R,ugm-3,938,R,ugm-3,,,,4,R,ugm-3,,,,19,R,ugm-3,,,
07-01-2010,23:00,594,R,ugm-3,149,R,ugm-3,1056,R,ugm-3,,,,4,R,ugm-3,,,,21,R,ugm-3,,,
07-01-2010,24:00,631,R,ugm-3,162,R,ugm-3,1127,R,ugm-3,,,,4,R,ugm-3,,,,21,R,ugm-3,,,
08-01-2010,01:00,484,R,ugm-3,145,R,ugm-3,884,R,ugm-3,,,,4,R,ugm-3,,,,16,R,ugm-3,,,
08-01-2010,02:00,444,R,ugm-3,130,R,ugm-3,808,R,ugm-3,,,,4,R,ugm-3,,,,,,,,,
08-01-2010,03:00,378,R,ugm-3,111,R,ugm-3,688,R,ugm-3,,,,2,R,ugm-3,,,,13,R,ugm-3,,,
08-01-2010,04:00,269,R,ugm-3,94,R,ugm-3,504,R,ugm-3,,,,2,R,ugm-3,,,,5,R,ugm-3,,,
08-01-2010,05:00,148,R,ugm-3,84,R,ugm-3,309,R,ugm-3,,,,2,R,ugm-3,,,,5,R,ugm-3,,,
08-01-2010,06:00,199,R,ugm-3,82,R,ugm-3,386,R,ugm-3,,,,2,R,ugm-3,,,,5,R,ugm-3,,,
08-01-2010,07:00,165,R,ugm-3,78,R,ugm-3,330,R,ugm-3,,,,2,R,ugm-3,,,,8,R,ugm-3,,,
08-01-2010,08:00,336,R,ugm-3,90,R,ugm-3,604,R,ugm-3,,,,2,R,ugm-3,,,,,,,,,
08-01-2010,09:00,166,R,ugm-3,84,R,ugm-3,338,R,ugm-3,,,,2,R,ugm-3,,,,5,R,ugm-3,,,
08-01-2010,10:00,166,R,ugm-3,84,R,ugm-3,338,R,ugm-3,,,,6,R,ugm-3,,,,5,R,ugm-3,,,
08-01-2010,11:00,143,R,ugm-3,86,R,ugm-3,304,R,ugm-3,,,,4,R,ugm-3,,,,5,R,ugm-3,,,
08-01-2010,12:00,106,R,ugm-3,80,R,ugm-3,243,R,ugm-3,,,,6,R,ugm-3,,,,5,R,ugm-3,,,
08-01-2010,13:00,96,R,ugm-3,76,R,ugm-3,223,R,ugm-3,,,,6,R,ugm-3,,,,5,R,ugm-3,,,
08-01-2010,14:00,64,R,ugm-3,73,R,ugm-3,170,R,ugm-3,,,,8,R,ugm-3,,,,5,R,ugm-3,,,
08-01-2010,15:00,46,R,ugm-3,73,R,ugm-3,143,R,ugm-3,,,,8,R,ugm-3,,,,3,R,ugm-3,,,
08-01-2010,16:00,63,R,ugm-3,82,R,ugm-3,178,R,ugm-3,,,,4,R,ugm-3,,,,5,R,ugm-3,,,
08-01-2010,17:00,70,R,ugm-3,88,R,ugm-3,195,R,ugm-3,,,,2,R,ugm-3,,,,5,R,ugm-3,,,
08-01-2010,18:00,88,R,ugm-3,90,R,ugm-3,223,R,ugm-3,,,,2,R,ugm-3,,,,5,R,ugm-3,,,
08-01-2010,19:00,60,R,ugm-3,86,R,ugm-3,178,R,ugm-3,,,,2,R,ugm-3,,,,5,R,ugm-3,,,
08-01-2010,20:00,53,R,ugm-3,82,R,ugm-3,162,R,ugm-3,,,,2,R,ugm-3,,,,5,R,ugm-3,,,
08-01-2010,21:00,24,R,ugm-3,71,R,ugm-3,107,R,ugm-3,,,,6,R,ugm-3,,,,3,R,ugm-3,,,
08-01-2010,22:00,21,R,ugm-3,67,R,ugm-3,99,R,ugm-3,,,,8,R,ugm-3,,,,3,R,ugm-3,,,
08-01-2010,23:00,23,R,ugm-3,71,R,ugm-3,105,R,ugm-3,,,,6,R,ugm-3,,,,3,R,ugm-3,,,
08-01-2010,24:00,29,R,ugm-3,65,R,ugm-3,109,R,ugm-3,,,,6,R,ugm-3,,,,3,R,ugm-3,,,
09-01-2010,01:00,14,R,ugm-3,55,R,ugm-3,76,R,ugm-3,,,,10,R,ugm-3,,,,5,R,ugm-3,,,
09-01-2010,02:00,8,R,ugm-3,52,R,ugm-3,63,R,ugm-3,,,,14,R,ugm-3,,,,,,,,,
09-01-2010,03:00,9,R,ugm-3,52,R,ugm-3,65,R,ugm-3,,,,12,R,ugm-3,,,,5,R,ugm-3,,,
09-01-2010,04:00,5,R,ugm-3,44,R,ugm-3,52,R,ugm-3,,,,22,R,ugm-3,,,,5,R,ugm-3,,,
09-01-2010,05:00,5,R,ugm-3,44,R,ugm-3,52,R,ugm-3,,,,20,R,ugm-3,,,,3,R,ugm-3,,,
09-01-2010,06:00,4,R,ugm-3,40,R,ugm-3,46,R,ugm-3,,,,22,R,ugm-3,,,,3,R,ugm-3,,,
09-01-2010,07:00,9,R,ugm-3,44,R,ugm-3,57,R,ugm-3,,,,14,R,ugm-3,,,,3,R,ugm-3,,,
09-01-2010,08:00,21,R,ugm-3,57,R,ugm-3,90,R,ugm-3,,,,8,R,ugm-3,,,,0,R,ugm-3,,,
09-01-2010,09:00,,,,,,,,,,,,,6,R,ugm-3,,,,3,R,ugm-3,,,
09-01-2010,10:00,,,,,,,,,,,,,6,R,ugm-3,,,,3,R,ugm-3,,,
09-01-2010,11:00,,,,,,,,,,,,,12,R,ugm-3,,,,3,R,ugm-3,,,
09-01-2010,12:00,,,,,,,,,,,,,20,R,ugm-3,,,,3,R,ugm-3,,,
09-01-2010,13:00,21,R,ugm-3,44,R,ugm-3,76,R,ugm-3,,,,28,R,ugm-3,,,,3,R,ugm-3,,,
09-01-2010,14:00,21,R,ugm-3,50,R,ugm-3,82,R,ugm-3,,,,24,R,ugm-3,,,,3,R,ugm-3,,,
09-01-2010,15:00,28,R,ugm-3,53,R,ugm-3,96,R,ugm-3,,,,22,R,ugm-3,,,,5,R,ugm-3,,,
09-01-2010,16:00,25,R,ugm-3,61,R,ugm-3,99,R,ugm-3,,,,16,R,ugm-3,,,,3,R,ugm-3,,,
09-01-2010,17:00,19,R,ugm-3,67,R,ugm-3,96,R,ugm-3,,,,12,R,ugm-3,,,,3,R,ugm-3,,,
09-01-2010,18:00,20,R,ugm-3,67,R,ugm-3,97,R,ugm-3,,,,10,R,ugm-3,,,,3,R,ugm-3,,,
09-01-2010,19:00,19,R,ugm-3,59,R,ugm-3,88,R,ugm-3,,,,16,R,ugm-3,,,,5,R,ugm-3,,,
09-01-2010,20:00,15,R,ugm-3,57,R,ugm-3,80,R,ugm-3,,,,16,R,ugm-3,,,,5,R,ugm-3,,,
09-01-2010,21:00,11,R,ugm-3,52,R,ugm-3,69,R,ugm-3,,,,20,R,ugm-3,,,,3,R,ugm-3,,,
09-01-2010,22:00,6,R,ugm-3,42,R,ugm-3,52,R,ugm-3,,,,26,R,ugm-3,,,,3,R,ugm-3,,,
09-01-2010,23:00,6,R,ugm-3,40,R,ugm-3,50,R,ugm-3,,,,32,R,ugm-3,,,,3,R,ugm-3,,,
09-01-2010,24:00,6,R,ugm-3,38,R,ugm-3,48,R,ugm-3,,,,30,R,ugm-3,,,,5,R,ugm-3,,,
10-01-2010,01:00,5,R,ugm-3,32,R,ugm-3,40,R,ugm-3,,,,32,R,ugm-3,,,,3,R,ugm-3,,,
10-01-2010,02:00,4,R,ugm-3,29,R,ugm-3,34,R,ugm-3,,,,36,R,ugm-3,,,,5,R,ugm-3,,,
10-01-2010,03:00,6,R,ugm-3,36,R,ugm-3,46,R,ugm-3,,,,30,R,ugm-3,,,,5,R,ugm-3,,,
10-01-2010,04:00,3,R,ugm-3,23,R,ugm-3,27,R,ugm-3,,,,40,R,ugm-3,,,,5,R,ugm-3,,,
10-01-2010,05:00,3,R,ugm-3,23,R,ugm-3,27,R,ugm-3,,,,42,R,ugm-3,,,,5,R,ugm-3,,,
10-01-2010,06:00,1,R,ugm-3,19,R,ugm-3,21,R,ugm-3,,,,46,R,ugm-3,,,,3,R,ugm-3,,,
10-01-2010,07:00,3,R,ugm-3,19,R,ugm-3,23,R,ugm-3,,,,46,R,ugm-3,,,,5,R,ugm-3,,,
10-01-2010,08:00,4,R,ugm-3,23,R,ugm-3,29,R,ugm-3,,,,44,R,ugm-3,,,,5,R,ugm-3,,,
10-01-2010,09:00,6,R,ugm-3,32,R,ugm-3,42,R,ugm-3,,,,40,R,ugm-3,,,,5,R,ugm-3,,,
10-01-2010,10:00,9,R,ugm-3,34,R,ugm-3,48,R,ugm-3,,,,36,R,ugm-3,,,,5,R,ugm-3,,,
10-01-2010,11:00,11,R,ugm-3,38,R,ugm-3,55,R,ugm-3,,,,32,R,ugm-3,,,,5,R,ugm-3,,,
10-01-2010,12:00,13,R,ugm-3,42,R,ugm-3,61,R,ugm-3,,,,30,R,ugm-3,,,,5,R,ugm-3,,,
10-01-2010,13:00,14,R,ugm-3,46,R,ugm-3,67,R,ugm-3,,,,28,R,ugm-3,,,,5,R,ugm-3,,,
10-01-2010,14:00,11,R,ugm-3,40,R,ugm-3,57,R,ugm-3,,,,32,R,ugm-3,,,,5,R,ugm-3,,,
10-01-2010,15:00,8,R,ugm-3,32,R,ugm-3,44,R,ugm-3,,,,38,R,ugm-3,,,,5,R,ugm-3,,,
10-01-2010,16:00,8,R,ugm-3,32,R,ugm-3,44,R,ugm-3,,,,38,R,ugm-3,,,,5,R,ugm-3,,,
10-01-2010,17:00,8,R,ugm-3,36,R,ugm-3,48,R,ugm-3,,,,34,R,ugm-3,,,,5,R,ugm-3,,,
10-01-2010,18:00,10,R,ugm-3,38,R,ugm-3,53,R,ugm-3,,,,32,R,ugm-3,,,,5,R,ugm-3,,,
10-01-2010,19:00,6,R,ugm-3,32,R,ugm-3,42,R,ugm-3,,,,36,R,ugm-3,,,,5,R,ugm-3,,,
10-01-2010,20:00,5,R,ugm-3,36,R,ugm-3,44,R,ugm-3,,,,32,R,ugm-3,,,,5,R,ugm-3,,,
10-01-2010,21:00,5,R,ugm-3,38,R,ugm-3,46,R,ugm-3,,,,30,R,ugm-3,,,,5,R,ugm-3,,,
10-01-2010,22:00,5,R,ugm-3,38,R,ugm-3,46,R,ugm-3,,,,26,R,ugm-3,,,,5,R,ugm-3,,,
10-01-2010,23:00,11,R,ugm-3,40,R,ugm-3,57,R,ugm-3,,,,24,R,ugm-3,,,,5,R,ugm-3,,,
10-01-2010,24:00,11,R,ugm-3,38,R,ugm-3,55,R,ugm-3,,,,26,R,ugm-3,,,,5,R,ugm-3,,,
11-01-2010,01:00,3,R,ugm-3,21,R,ugm-3,25,R,ugm-3,,,,,,,,,,5,R,ugm-3,,,
11-01-2010,02:00,3,R,ugm-3,21,R,ugm-3,25,R,ugm-3,,,,38,R,ugm-3,,,,,,,,,
11-01-2010,03:00,3,R,ugm-3,15,R,ugm-3,19,R,ugm-3,,,,42,R,ugm-3,,,,5,R,ugm-3,,,
11-01-2010,04:00,3,R,ugm-3,15,R,ugm-3,19,R,ugm-3,,,,42,R,ugm-3,,,,5,R,ugm-3,,,
11-01-2010,05:00,1,R,ugm-3,13,R,ugm-3,15,R,ugm-3,,,,44,R,ugm-3,,,,5,R,ugm-3,,,
11-01-2010,06:00,4,R,ugm-3,19,R,ugm-3,25,R,ugm-3,,,,38,R,ugm-3,,,,5,R,ugm-3,,,
11-01-2010,07:00,21,R,ugm-3,46,R,ugm-3,78,R,ugm-3,,,,18,R,ugm-3,,,,5,R,ugm-3,,,
11-01-2010,08:00,43,R,ugm-3,63,R,ugm-3,128,R,ugm-3,,,,6,R,ugm-3,,,,,,,,,
11-01-2010,09:00,45,R,ugm-3,65,R,ugm-3,134,R,ugm-3,,,,4,R,ugm-3,,,,,,,,,
11-01-2010,10:00,56,R,ugm-3,69,R,ugm-3,155,R,ugm-3,,,,2,R,ugm-3,,,,,,,,,
11-01-2010,11:00,51,R,ugm-3,69,R,ugm-3,147,R,ugm-3,,,,4,R,ugm-3,,,,,,,,,
11-01-2010,12:00,41,R,ugm-3,65,R,ugm-3,128,R,ugm-3,,,,6,R,ugm-3,,,,0,R,ugm-3,,,
11-01-2010,13:00,49,R,ugm-3,69,R,ugm-3,143,R,ugm-3,,,,4,R,ugm-3,,,,3,R,ugm-3,,,
11-01-2010,14:00,63,R,ugm-3,69,R,ugm-3,164,R,ugm-3,,,,2,R,ugm-3,,,,3,R,ugm-3,,,
11-01-2010,15:00,69,R,ugm-3,71,R,ugm-3,176,R,ugm-3,,,,2,R,ugm-3,,,,5,R,ugm-3,,,
11-01-2010,16:00,59,R,ugm-3,73,R,ugm-3,162,R,ugm-3,,,,2,R,ugm-3,,,,3,R,ugm-3,,,
11-01-2010,17:00,45,R,ugm-3,71,R,ugm-3,139,R,ugm-3,,,,4,R,ugm-3,,,,3,R,ugm-3,,,
11-01-2010,18:00,74,R,ugm-3,69,R,ugm-3,181,R,ugm-3,,,,2,R,ugm-3,,,,5,R,ugm-3,,,
11-01-2010,19:00,89,R,ugm-3,73,R,ugm-3,208,R,ugm-3,,,,0,R,ugm-3,,,,5,R,ugm-3,,,
11-01-2010,20:00,69,R,ugm-3,71,R,ugm-3,176,R,ugm-3,,,,2,R,ugm-3,,,,5,R,ugm-3,,,
11-01-2010,21:00,36,R,ugm-3,61,R,ugm-3,117,R,ugm-3,,,,6,R,ugm-3,,,,3,R,ugm-3,,,
11-01-2010,22:00,28,R,ugm-3,57,R,ugm-3,99,R,ugm-3,,,,6,R,ugm-3,,,,5,R,ugm-3,,,
11-01-2010,23:00,15,R,ugm-3,50,R,ugm-3,73,R,ugm-3,,,,12,R,ugm-3,,,,3,R,ugm-3,,,
11-01-2010,24:00,23,R,ugm-3,59,R,ugm-3,94,R,ugm-3,,,,6,R,ugm-3,,,,5,R,ugm-3,,,
12-01-2010,01:00,10,R,ugm-3,42,R,ugm-3,57,R,ugm-3,,,,18,R,ugm-3,,,,3,R,ugm-3,,,
12-01-2010,02:00,5,R,ugm-3,36,R,ugm-3,44,R,ugm-3,,,,22,R,ugm-3,,,,,,,,,
12-01-2010,03:00,3,R,ugm-3,25,R,ugm-3,29,R,ugm-3,,,,34,R,ugm-3,,,,5,R,ugm-3,,,
12-01-2010,04:00,4,R,ugm-3,27,R,ugm-3,32,R,ugm-3,,,,30,R,ugm-3,,,,5,R,ugm-3,,,
12-01-2010,05:00,4,R,ugm-3,25,R,ugm-3,31,R,ugm-3,,,,30,R,ugm-3,,,,3,R,ugm-3,,,
12-01-2010,06:00,4,R,ugm-3,25,R,ugm-3,31,R,ugm-3,,,,32,R,ugm-3,,,,3,R,ugm-3,,,
12-01-2010,07:00,11,R,ugm-3,38,R,ugm-3,55,R,ugm-3,,,,22,R,ugm-3,,,,5,R,ugm-3,,,
12-01-2010,08:00,38,R,ugm-3,55,R,ugm-3,113,R,ugm-3,,,,8,R,ugm-3,,,,,,,,,
12-01-2010,09:00,26,R,ugm-3,53,R,ugm-3,94,R,ugm-3,,,,14,R,ugm-3,,,,0,R,ugm-3,,,
12-01-2010,10:00,31,R,ugm-3,55,R,ugm-3,103,R,ugm-3,,,,10,R,ugm-3,,,,3,R,ugm-3,,,
12-01-2010,11:00,36,R,ugm-3,53,R,ugm-3,109,R,ugm-3,,,,10,R,ugm-3,,,,3,R,ugm-3,,,
12-01-2010,12:00,34,R,ugm-3,52,R,ugm-3,103,R,ugm-3,,,,10,R,ugm-3,,,,5,R,ugm-3,,,
12-01-2010,13:00,48,R,ugm-3,55,R,ugm-3,128,R,ugm-3,,,,6,R,ugm-3,,,,5,R,ugm-3,,,
12-01-2010,14:00,39,R,ugm-3,50,R,ugm-3,109,R,ugm-3,,,,8,R,ugm-3,,,,5,R,ugm-3,,,
12-01-2010,15:00,44,R,ugm-3,53,R,ugm-3,120,R,ugm-3,,,,4,R,ugm-3,,,,5,R,ugm-3,,,
12-01-2010,16:00,49,R,ugm-3,53,R,ugm-3,128,R,ugm-3,,,,2,R,ugm-3,,,,5,R,ugm-3,,,
12-01-2010,17:00,54,R,ugm-3,52,R,ugm-3,134,R,ugm-3,,,,2,R,ugm-3,,,,5,R,ugm-3,,,
12-01-2010,18:00,50,R,ugm-3,50,R,ugm-3,126,R,ugm-3,,,,6,R,ugm-3,,,,5,R,ugm-3,,,
12-01-2010,19:00,34,R,ugm-3,50,R,ugm-3,101,R,ugm-3,,,,8,R,ugm-3,,,,5,R,ugm-3,,,
12-01-2010,20:00,24,R,ugm-3,44,R,ugm-3,80,R,ugm-3,,,,8,R,ugm-3,,,,5,R,ugm-3,,,
12-01-2010,21:00,18,R,ugm-3,42,R,ugm-3,69,R,ugm-3,,,,10,R,ugm-3,,,,5,R,ugm-3,,,
12-01-2010,22:00,16,R,ugm-3,42,R,ugm-3,67,R,ugm-3,,,,8,R,ugm-3,,,,5,R,ugm-3,,,
12-01-2010,23:00,14,R,ugm-3,40,R,ugm-3,61,R,ugm-3,,,,8,R,ugm-3,,,,3,R,ugm-3,,,
12-01-2010,24:00,13,R,ugm-3,38,R,ugm-3,57,R,ugm-3,,,,10,R,ugm-3,,,,3,R,ugm-3,,,
13-01-2010,01:00,6,R,ugm-3,29,R,ugm-3,38,R,ugm-3,,,,14,R,ugm-3,,,,3,R,ugm-3,,,
13-01-2010,02:00,5,R,ugm-3,29,R,ugm-3,36,R,ugm-3,,,,12,R,ugm-3,,,,,,,,,
13-01-2010,03:00,4,R,ugm-3,27,R,ugm-3,32,R,ugm-3,,,,16,R,ugm-3,,,,3,R,ugm-3,,,
13-01-2010,04:00,5,R,ugm-3,32,R,ugm-3,40,R,ugm-3,,,,10,R,ugm-3,,,,3,R,ugm-3,,,
13-01-2010,05:00,5,R,ugm-3,44,R,ugm-3,52,R,ugm-3,,,,4,R,ugm-3,,,,3,R,ugm-3,,,
13-01-2010,06:00,13,R,ugm-3,46,R,ugm-3,65,R,ugm-3,,,,0,R,ugm-3,,,,0,R,ugm-3,,,
13-01-2010,07:00,38,R,ugm-3,50,R,ugm-3,107,R,ugm-3,,,,0,R,ugm-3,,,,3,R,ugm-3,,,
13-01-2010,08:00,68,R,ugm-3,52,R,ugm-3,155,R,ugm-3,,,,0,R,ugm-3,,,,5,R,ugm-3,,,